Wind_Speed
20 20 17 15 13 12 11 10 8 6 5 3 2 1 3 6 8 9 9 7 9 11 9 8 8 7 7 7 7 7 8 9 9 8 9 9 10 10 10 10 11 11 10
22 21 20 18 15 14 13 11 10 8 6 4 4 3 5 8 9 8 8 8 8 8 8 8 8 8 7 7 7 7 8 8 8 8 8 8 9 10 10 10 10 10 10
25 23 22 20 18 17 15 13 12 9 7 6 6 5 7 8 9 9 8 8 8 8 8 8 7 7 6 6 6 5 6 8 6 7 6 7 9 9 9 10 10 10 10
29 26 25 23 20 19 18 16 14 11 9 8 7 8 8 9 10 10 10 8 8 7 6 5 5 6 6 6 6 6 6 6 5 6 6 7 8 8 9 10 11 11 11
31 30 27 25 23 22 21 19 16 13 10 8 9 8 7 8 11 11 10 9 8 6 6 4 3 2 3 4 6 7 6 6 4 5 7 7 8 9 9 10 12 12 12
32 30 27 26 26 25 23 21 18 14 11 10 9 8 6 8 11 12 11 10 9 7 6 4 2 1 2 3 5 6 6 7 6 7 7 9 9 9 10 12 13 13 13
34 32 29 28 29 29 27 25 20 15 12 13 12 6 5 7 10 12 12 11 10 9 8 7 5 5 6 8 9 9 8 8 7 8 9 10 10 11 12 13 15 15 16
36 35 34 33 32 32 31 26 24 19 11 18 7 6 1 2 8 11 12 13 13 11 10 8 6 7 8 11 12 11 10 7 8 9 11 12 12 13 15 16 17 18 19
39 38 38 36 35 35 34 33 29 24 17 19 13 6 2 4 3 7 10 12 13 14 12 9 8 9 10 9 8 7 7 8 9 11 13 14 15 17 18 19 21 22 22
40 41 41 41 39 40 38 36 32 29 24 19 17 15 6 5 3 1 6 10 14 15 13 9 8 9 8 7 6 5 7 8 10 12 15 17 18 20 22 24 25 25 25
43 41 42 42 44 44 42 39 36 33 28 24 18 13 9 7 6 3 2 5 13 15 15 12 10 8 8 6 7 8 8 12 14 17 19 21 23 24 25 25 25 25 25
44 42 44 45 46 46 44 41 38 34 31 24 25 20 16 8 7 5 2 3 5 7 14 14 12 9 9 7 8 10 13 16 17 19 21 22 24 25 26 26 26 27 27
42 46 45 45 46 47 44 39 35 33 29 25 21 19 16 14 13 12 7 3 3 4 6 10 10 11 10 9 10 15 22 21 18 20 22 23 24 24 24 24 24 25 26
46 47 47 45 46 46 41 36 34 31 26 20 18 13 14 13 11 12 9 8 1 1 3 8 8 11 11 11 15 20 20 18 20 22 23 23 23 23 23 24 25 26 27
38 42 43 44 41 41 37 37 34 31 27 23 18 18 14 11 9 8 10 9 7 3 2 4 5 6 7 16 21 20 19 21 20 21 22 22 24 25 24 25 26 27 28
33 35 38 41 39 36 34 35 32 28 25 25 22 20 15 9 7 7 5 7 9 8 3 7 6 12 19 22 22 21 22 24 25 23 23 23 23 23 24 25 26 28 28
29 30 32 34 34 32 32 32 30 28 23 20 17 15 10 9 9 6 7 7 9 9 8 9 13 17 20 22 23 23 24 26 28 26 24 24 22 23 24 26 26 27 28
23 26 27 27 29 31 32 31 29 26 21 17 13 8 9 11 8 7 7 11 10 10 11 11 18 19 21 21 22 24 25 27 28 27 24 23 24 24 25 24 24 26 27
20 22 24 27 29 31 32 30 28 24 20 15 8 9 4 11 6 5 9 11 11 11 12 13 16 19 20 21 24 25 27 29 28 27 25 24 21 21 22 22 24 27 29
19 21 24 26 28 29 30 28 24 18 14 11 9 5 5 8 5 8 10 8 9 11 13 16 19 21 21 22 22 23 22 24 27 29 28 20 20 21 25 28 30 29 29
25 26 27 27 28 30 25 23 19 16 12 9 5 4 5 6 5 5 7 8 10 12 13 17 19 19 19 19 18 23 25 25 26 27 22 24 26 33 36 33 30 28 26
26 26 27 30 29 27 23 22 20 17 13 7 4 5 5 5 5 6 7 8 9 13 16 14 18 16 18 22 23 23 22 18 10 20 18 28 28 33 34 32 29 26 28
26 30 30 31 28 25 20 18 16 13 8 3 3 8 4 2 5 6 8 9 10 12 13 16 17 21 22 25 27 27 23 19 21 29 29 29 23 31 33 33 30 30 31
27 30 28 28 28 21 17 13 9 10 8 5 6 2 1 4 7 7 10 12 13 13 14 18 20 23 23 21 21 20 25 26 24 28 22 16 26 27 34 33 35 29 26
26 25 24 23 22 18 13 13 12 10 8 5 2 3 4 7 9 10 12 13 13 15 17 18 17 17 18 21 23 22 25 20 17 21 20 21 21 26 28 32 17 23 23
24 22 20 17 15 15 11 10 9 4 3 2 2 5 8 8 9 10 12 12 12 19 18 18 18 23 23 21 19 17 18 20 16 13 5 7 23 18 9 21 20 27 35
Wind_Direction
204 205 209 211 212 212 211 207 206 210 207 220 235 180 151 146 148 146 149 158 131 114 110 103 91 80 74 65 55 53 44 36 35 34 27 28 29 29 27 22 15 8 3
213 211 211 211 213 214 213 214 216 212 218 222 218 178 164 157 159 154 153 152 149 129 112 105 91 82 75 58 45 47 35 29 31 29 28 27 21 18 13 13 10 7 5
218 218 215 212 213 210 208 209 209 217 221 211 200 184 175 170 171 164 159 160 155 143 122 113 94 84 75 56 47 35 18 14 16 17 17 14 10 12 11 7 4 360 357
221 221 219 218 214 210 208 207 210 214 212 207 197 189 183 182 180 175 167 163 162 162 144 128 101 88 69 57 39 18 358 351 350 353 353 351 358 358 355 354 350 344 340
221 221 221 218 214 211 212 210 207 212 209 198 189 186 185 188 189 186 180 175 176 175 168 159 143 111 68 45 21 8 359 343 325 326 327 326 328 335 339 338 335 331 328
221 218 219 216 211 209 207 207 213 208 206 188 173 172 176 190 193 195 195 194 196 196 198 199 212 255 303 321 330 352 346 334 311 311 313 315 311 314 318 325 325 321 318
221 216 216 214 212 210 210 210 205 204 184 177 153 146 136 177 188 198 206 210 215 210 213 223 248 269 293 301 305 309 317 316 305 299 302 307 302 303 305 311 313 312 309
223 216 215 214 211 208 211 207 209 194 187 180 169 137 147 196 204 205 210 215 215 215 216 228 251 279 299 304 304 305 303 300 298 298 301 302 298 298 298 299 301 303 302
225 222 219 215 211 208 211 213 212 211 184 192 191 165 118 219 152 205 211 211 212 210 211 227 255 287 300 304 308 314 321 315 310 302 300 298 297 297 296 295 295 295 295
223 222 222 217 212 211 213 215 211 211 206 190 195 217 204 152 162 194 208 210 212 212 213 233 265 291 298 300 308 309 316 326 323 310 303 300 297 296 294 293 292 292 291
223 221 222 217 216 214 215 214 211 208 209 203 187 174 182 178 169 134 186 212 221 221 231 247 267 277 274 280 302 312 325 330 320 311 303 298 296 294 293 292 291 290 290
219 220 220 219 220 217 216 217 213 209 206 213 206 195 179 169 184 157 136 189 209 229 237 244 261 257 257 275 303 317 318 323 318 310 305 299 297 294 292 291 290 288 287
218 220 219 219 219 219 219 217 211 209 209 205 210 201 195 186 171 175 160 152 206 259 256 250 242 251 246 286 303 318 315 316 318 313 306 300 297 295 294 292 290 288 286
227 222 219 220 219 217 215 211 209 208 204 197 185 218 199 184 180 184 164 152 91 301 284 247 240 234 249 271 302 315 316 317 314 311 305 301 298 297 295 292 290 289 287
228 226 220 216 218 214 209 205 204 200 197 189 189 188 200 181 187 196 191 178 170 169 263 258 245 247 256 293 312 317 318 317 313 309 303 298 296 295 294 291 291 290 288
228 223 217 214 213 212 202 199 195 192 191 181 184 176 190 175 190 201 214 195 211 199 204 227 256 281 297 303 309 313 315 318 317 310 302 298 296 294 292 290 288 288 287
227 220 212 206 203 198 195 193 187 178 177 175 172 168 177 191 196 201 227 235 235 229 219 263 271 287 294 302 308 311 315 318 318 315 303 300 298 295 291 289 288 287 286
219 212 203 197 191 188 188 186 172 169 166 170 161 171 177 208 189 205 236 252 252 245 249 256 284 291 294 305 306 309 315 316 317 316 305 303 300 295 293 291 290 287 285
200 194 189 181 183 182 180 171 167 162 165 155 178 163 219 241 203 227 240 245 257 268 269 267 279 290 294 305 309 309 316 318 316 315 306 305 302 299 298 294 290 290 286
175 166 165 163 162 165 162 155 154 156 154 143 138 157 202 260 268 254 248 258 272 275 278 275 280 288 296 308 304 307 308 306 306 316 314 312 302 301 295 293 291 288 284
154 155 149 147 150 150 150 149 147 141 138 131 133 220 219 247 257 259 273 280 278 272 272 280 286 290 293 302 302 306 298 303 308 317 307 308 310 305 308 306 298 292 286
141 145 145 145 142 138 139 134 134 135 131 139 166 265 262 249 264 258 266 271 273 281 288 289 289 285 293 302 301 301 296 303 312 309 298 298 300 296 297 303 304 290 288
130 128 132 138 126 120 125 140 144 132 133 133 208 203 211 259 287 292 282 283 284 286 286 291 295 295 297 302 303 299 298 288 284 292 300 298 294 286 301 304 299 292 290
126 129 133 133 127 119 121 118 133 115 116 169 201 150 26 335 313 302 295 294 292 292 292 297 297 297 297 302 304 303 301 295 293 295 296 285 297 288 300 299 298 291 292
123 123 126 125 121 113 110 111 113 122 137 150 104 32 360 321 305 298 295 300 304 300 302 302 294 292 296 301 302 303 299 304 306 297 294 276 287 295 297 292 301 298 286
120 120 111 107 107 125 139 122 107 115 85 60 25 347 323 304 297 301 305 318 317 316 318 313 303 305 313 314 311 302 302 293 290 302 305 268 294 306 300 293 295 292 297
Height
821 824 827 830 832 833 834 836 837 838 838 839 839 840 841 841 843 843 843 846 846 848 849 850 849 850 850 850 849 849 848 847 847 846 846 845 845 844 843 842 841 841 839
818 821 823 826 829 831 833 835 837 837 837 838 838 838 840 840 842 844 844 846 847 848 849 850 850 850 850 850 850 849 849 848 847 847 846 846 845 843 843 842 840 839 839
816 818 820 822 824 827 830 832 834 836 837 837 837 837 839 840 842 843 844 846 846 848 849 849 849 849 849 850 850 849 849 848 847 847 846 846 845 844 843 842 840 839 838
812 815 817 819 822 825 827 829 831 833 835 836 836 837 838 839 841 842 843 845 846 847 847 848 847 848 848 849 849 849 848 848 847 846 846 845 844 843 842 841 840 839 838
806 809 812 816 819 823 826 827 828 830 833 834 835 836 838 839 841 842 843 844 846 846 847 847 846 847 847 847 847 847 847 846 845 845 845 844 843 842 841 840 840 838 837
801 804 808 811 814 819 822 824 826 827 830 832 834 835 836 837 839 842 843 843 844 846 847 847 846 846 846 846 845 845 845 844 844 843 843 842 841 841 840 839 838 837 836
795 799 803 807 810 813 817 820 823 825 827 829 832 835 835 836 837 839 841 843 844 844 845 845 845 845 844 844 843 842 842 842 842 841 840 840 839 838 837 837 836 835 833
789 793 796 800 805 809 813 815 818 821 823 826 828 831 836 837 836 836 838 839 840 841 842 842 842 842 841 841 841 840 839 839 839 838 838 837 836 835 834 833 832 831 830
783 786 789 792 797 802 804 807 811 815 818 822 823 825 835 833 833 835 835 836 837 837 838 839 840 839 838 838 837 837 837 837 837 836 835 834 833 832 830 829 828 826 825
774 778 782 786 789 794 797 800 804 808 811 814 819 821 821 822 828 834 833 833 834 835 835 836 837 837 837 836 835 835 835 834 834 833 832 831 830 828 826 824 822 821 819
763 769 774 779 782 784 788 792 797 801 804 807 809 814 818 820 821 824 830 829 831 832 833 832 833 833 833 833 833 833 832 832 831 830 828 826 824 823 821 818 816 814 813
757 761 765 768 774 777 781 786 791 795 797 802 805 805 807 812 816 819 824 826 827 828 829 830 829 830 831 831 830 830 829 828 827 825 823 821 819 817 815 813 811 809 807
748 752 757 761 764 770 775 781 787 792 795 797 804 806 805 804 806 812 816 821 824 826 826 826 827 827 828 828 827 826 825 824 822 820 817 815 812 810 808 806 805 803 800
737 741 746 753 758 761 768 776 783 788 792 795 796 810 807 805 805 808 811 817 825 826 825 824 824 825 825 824 823 822 820 818 817 815 812 808 806 804 802 800 798 796 794
732 735 740 745 754 758 763 770 776 783 787 790 797 801 809 804 806 808 809 808 817 824 826 822 823 822 823 822 820 817 815 813 811 809 806 803 800 797 795 793 791 789 787
727 730 735 740 748 752 758 766 772 779 785 788 794 793 803 800 805 809 811 810 814 815 821 819 819 819 820 818 817 814 811 808 805 802 799 796 793 791 789 787 784 782 780
725 729 732 737 744 751 758 765 770 776 784 789 793 793 800 802 804 804 809 811 812 812 815 814 815 815 814 813 811 810 805 802 798 795 793 790 787 784 782 779 777 775 773
723 728 733 738 743 749 755 762 768 774 782 789 789 795 796 804 798 800 804 810 811 810 811 810 811 809 809 808 806 803 800 797 793 789 786 783 780 777 774 772 770 767 765
724 727 732 738 742 747 752 759 767 774 781 784 793 789 797 806 796 797 802 805 806 807 807 806 806 805 804 802 799 797 794 789 786 783 780 775 772 770 768 765 763 760 757
725 730 734 738 743 749 755 761 768 776 779 784 788 793 797 799 796 797 800 800 801 802 802 801 801 800 800 797 795 791 787 785 780 776 771 769 766 764 760 757 754 750 748
725 731 735 740 746 752 759 763 770 776 782 784 788 796 795 797 794 796 797 797 799 798 798 796 796 796 794 792 790 787 783 778 773 768 763 762 759 755 749 746 743 740 737
728 733 740 743 749 754 761 766 771 777 779 785 787 792 794 793 792 794 795 797 796 795 793 791 792 791 789 787 785 782 778 774 768 764 759 756 754 746 742 738 735 732 729
735 738 743 747 754 759 765 768 770 774 780 783 787 789 790 789 791 791 793 794 793 792 791 790 787 786 785 782 779 776 772 769 766 760 755 746 745 738 733 730 728 724 720
743 745 750 753 756 765 769 770 776 775 777 785 793 786 785 786 789 790 791 790 789 788 787 785 783 781 780 777 774 771 767 763 759 754 752 743 736 731 726 722 717 714 711
749 752 756 760 763 766 769 775 776 778 783 788 786 783 784 786 788 788 787 787 785 783 782 780 778 778 776 772 770 767 763 759 753 748 745 741 730 724 719 711 707 705 702
756 759 760 764 767 773 775 774 775 781 782 783 782 782 785 787 787 786 784 782 780 778 775 774 774 772 768 765 765 763 759 756 754 744 738 738 728 725 711 702 700 698 693